OBJECT A

基本信息
目录编号:
69538
目录名称:
OBJECT A
国际标识:
2026-134A
轨道中心:
EARTH
物体状态:
在轨
发射日期:
2026-06-15 UTC
国别:
中国 (CN)
轨道信息
数据来源: 国际轨道数据
星历时间: 2026-09-05T14:50:36+0800
半长轴: 6918.42km
偏心率: 0.0015955
轨道倾角: 97.694°
近地点辐角: 4.058°
升交点赤经: 318.659°
平近点角: 356.077°
近地点: 529.244km
远地点: 551.322km
周期: 95.449分钟
每日圈数: 15.086635
详细信息
发射场:
JSC
轨道高度:
LEO
数据来源:
AOE Working Group
参考系:
TEME
时间系统:
UTC
历元类型:
SGP4
2D轨道图
3D轨道图
轨道高度分析图
轨道倾角分析图
轨道综合分析图
查看轨道综合分析图